| time (UTC) | temp F | wind direction | speed MPH | gust MPH | rain 1hr in | rain 24hr in | rain mn in | humidity % | barometer mb |
| 20260506033350 | 30 | 345 | 1.0 | 4.0 | 0.00 | 0.17 | 0.16 | 96 | 1020.6 |
| 20260506032850 | 30 | 331 | 1.0 | 4.0 | 0.00 | 0.18 | 0.16 | 96 | 1020.6 |
| 20260506032348 | 30 | 338 | 1.0 | 4.0 | 0.00 | 0.19 | 0.16 | 96 | 1020.6 |
| 20260506031851 | 30 | 2 | 0.0 | 3.0 | 0.00 | 0.20 | 0.16 | 96 | 1020.6 |
| 20260506031350 | 30 | 309 | 1.0 | 3.0 | 0.00 | 0.22 | 0.16 | 96 | 1020.6 |
| 20260506031119 | 30 | 17 | 0.0 | 3.0 | 0.00 | 0.23 | 0.16 | 96 | 1020.6 |
| 20260506030350 | 30 | 359 | 0.0 | 1.0 | 0.00 | 0.24 | 0.16 | 96 | 1020.6 |
| 20260506025850 | 30 | 13 | 0.0 | 2.0 | 0.00 | 0.26 | 0.16 | 96 | 1020.6 |
| 20260506025348 | 30 | 36 | 0.0 | 2.0 | 0.00 | 0.27 | 0.16 | 96 | 1020.6 |
| 20260506024848 | 30 | 343 | 1.0 | 3.0 | 0.00 | 0.29 | 0.16 | 96 | 1020.6 |
| 20260506024349 | 30 | 333 | 1.0 | 4.0 | 0.00 | 0.31 | 0.16 | 96 | 1020.6 |
| 20260506024117 | 30 | 319 | 1.0 | 4.0 | 0.00 | 0.32 | 0.16 | 96 | 1020.6 |
| 20260506023346 | 30 | 323 | 0.0 | 2.0 | 0.00 | 0.32 | 0.16 | 96 | 1020.6 |
| 20260506022851 | 30 | 321 | 0.0 | 3.0 | 0.00 | 0.32 | 0.16 | 96 | 1020.6 |
| 20260506022847 | 30 | 321 | 0.0 | 3.0 | 0.00 | 0.32 | 0.16 | 96 | 1020.6 |
| 20260506021848 | 30 | 356 | 1.0 | 3.0 | 0.00 | 0.32 | 0.16 | 96 | 1020.6 |
| 20260506021345 | 30 | 343 | 1.0 | 3.0 | 0.00 | 0.32 | 0.16 | 96 | 1020.6 |
| 20260506020846 | 30 | 326 | 1.0 | 3.0 | 0.00 | 0.32 | 0.16 | 96 | 1020.6 |
| 20260506020345 | 30 | 328 | 1.0 | 3.0 | 0.00 | 0.32 | 0.16 | 96 | 1020.6 |
| 20260506015845 | 30 | 322 | 1.0 | 3.0 | 0.00 | 0.32 | 0.16 | 96 | 1020.6 |
| 20260506015343 | 30 | 330 | 1.0 | 3.0 | 0.00 | 0.32 | 0.16 | 96 | 1020.6 |
| 20260506014844 | 30 | 315 | 1.0 | 3.0 | 0.00 | 0.32 | 0.16 | 96 | 1020.6 |
| 20260506014342 | 30 | 11 | 0.0 | 3.0 | 0.00 | 0.32 | 0.16 | 96 | 1020.6 |
| 20260506013842 | 30 | 13 | 0.0 | 3.0 | 0.00 | 0.32 | 0.16 | 96 | 1020.6 |
| 20260506013343 | 31 | 6 | 0.0 | 3.0 | 0.00 | 0.32 | 0.16 | 96 | 1020.6 |
| 20260506012849 | 31 | 4 | 1.0 | 4.0 | 0.00 | 0.32 | 0.16 | 96 | 1020.6 |
| 20260506012844 | 31 | 56 | 1.0 | 3.0 | 0.00 | 0.32 | 0.16 | 96 | 1020.6 |
| 20260506012113 | 31 | 4 | 1.0 | 4.0 | 0.00 | 0.32 | 0.16 | 96 | 1020.6 |
| 20260506011343 | 31 | 354 | 1.0 | 4.0 | 0.00 | 0.32 | 0.16 | 96 | 1020.6 |
| 20260506010842 | 31 | 347 | 2.0 | 5.0 | 0.00 | 0.32 | 0.16 | 96 | 1020.6 |
| 20260506010342 | 31 | 301 | 2.0 | 5.0 | 0.00 | 0.32 | 0.16 | 96 | 1020.6 |
| 20260506005843 | 31 | 338 | 2.0 | 5.0 | 0.00 | 0.32 | 0.16 | 96 | 1020.6 |
| 20260506005342 | 31 | 47 | 2.0 | 6.0 | 0.00 | 0.32 | 0.16 | 96 | 1020.6 |
| 20260506004843 | 31 | 358 | 3.0 | 7.0 | 0.00 | 0.32 | 0.16 | 96 | 1020.6 |
| 20260506004342 | 31 | 4 | 3.0 | 7.0 | 0.00 | 0.32 | 0.16 | 96 | 1020.6 |
| 20260506003844 | 31 | 326 | 4.0 | 7.0 | 0.00 | 0.32 | 0.16 | 96 | 1020.6 |
| 20260506003343 | 31 | 36 | 4.0 | 7.0 | 0.00 | 0.32 | 0.16 | 96 | 1020.6 |
| 20260506002842 | 31 | 316 | 4.0 | 8.0 | 0.00 | 0.32 | 0.16 | 96 | 1020.6 |
| 20260506002342 | 31 | 352 | 4.0 | 8.0 | 0.00 | 0.32 | 0.16 | 96 | 1020.6 |
| 20260506001844 | 31 | 354 | 4.0 | 7.0 | 0.00 | 0.32 | 0.16 | 96 | 1020.6 |
| 20260506001340 | 31 | 352 | 4.0 | 7.0 | 0.00 | 0.32 | 0.16 | 96 | 1020.6 |
| 20260506001113 | 31 | 20 | 4.0 | 7.0 | 0.00 | 0.32 | 0.16 | 96 | 1020.6 |
| 20260506000611 | 31 | 26 | 4.0 | 10.0 | 0.00 | 0.32 | 0.16 | 96 | 1020.6 |
| 20260505235841 | 31 | 350 | 4.0 | 10.0 | 0.00 | 0.32 | 0.16 | 96 | 1020.6 |
| 20260505235342 | 31 | 345 | 4.0 | 7.0 | 0.00 | 0.32 | 0.16 | 96 | 1020.6 |
| 20260505235111 | 31 | 340 | 4.0 | 6.0 | 0.00 | 0.32 | 0.16 | 96 | 1020.6 |
| 20260505234612 | 31 | 345 | 3.0 | 8.0 | 0.00 | 0.32 | 0.16 | 96 | 1020.6 |
| 20260505233841 | 31 | 6 | 3.0 | 8.0 | 0.00 | 0.32 | 0.16 | 96 | 1020.6 |
| 20260505233341 | 31 | 326 | 3.0 | 10.0 | 0.00 | 0.32 | 0.16 | 96 | 1020.6 |
| 20260505232840 | 31 | 352 | 4.0 | 10.0 | 0.00 | 0.32 | 0.16 | 96 | 1020.6 |
| 20260505232338 | 31 | 329 | 5.0 | 10.0 | 0.00 | 0.32 | 0.16 | 96 | 1020.6 |
| 20260505231839 | 31 | 8 | 5.0 | 10.0 | 0.00 | 0.32 | 0.16 | 96 | 1020.6 |
| 20260505231340 | 31 | 0 | 5.0 | 10.0 | 0.00 | 0.32 | 0.16 | 96 | 1020.6 |
| 20260505230839 | 31 | 327 | 5.0 | 10.0 | 0.00 | 0.32 | 0.16 | 96 | 1020.6 |
| 20260505230339 | 31 | 323 | 6.0 | 13.0 | 0.00 | 0.32 | 0.16 | 96 | 1020.6 |
| 20260505225838 | 31 | 351 | 6.0 | 13.0 | 0.00 | 0.32 | 0.16 | 96 | 1020.6 |
| 20260505225340 | 31 | 335 | 6.0 | 11.0 | 0.00 | 0.32 | 0.16 | 96 | 1020.6 |
| 20260505224839 | 31 | 317 | 6.0 | 11.0 | 0.00 | 0.32 | 0.16 | 96 | 1020.6 |
| 20260505224610 | 31 | 8 | 6.0 | 12.0 | 0.00 | 0.32 | 0.16 | 96 | 1020.6 |
| 20260505223838 | 31 | 293 | 5.0 | 12.0 | 0.00 | 0.32 | 0.16 | 96 | 1020.6 |
| 20260505223336 | 31 | 39 | 6.0 | 12.0 | 0.00 | 0.32 | 0.16 | 96 | 1020.6 |
| 20260505222837 | 31 | 32 | 6.0 | 12.0 | 0.00 | 0.32 | 0.16 | 96 | 1020.6 |
| 20260505222606 | 31 | 320 | 5.0 | 13.0 | 0.01 | 0.32 | 0.16 | 96 | 1020.6 |
| 20260505221836 | 32 | 5 | 6.0 | 13.0 | 0.01 | 0.32 | 0.16 | 96 | 1020.6 |
| 20260505221337 | 32 | 26 | 7.0 | 15.0 | 0.01 | 0.32 | 0.16 | 96 | 1020.6 |
| 20260505220836 | 32 | 15 | 7.0 | 15.0 | 0.01 | 0.32 | 0.16 | 96 | 1020.6 |
| 20260505220609 | 32 | 36 | 6.0 | 10.0 | 0.01 | 0.32 | 0.16 | 96 | 1020.6 |
| 20260505215841 | 32 | 338 | 5.0 | 13.0 | 0.01 | 0.32 | 0.16 | 96 | 1020.6 |
| 20260505215837 | 32 | 347 | 5.0 | 13.0 | 0.01 | 0.32 | 0.16 | 96 | 1020.6 |
| 20260505214838 | 32 | 321 | 6.0 | 10.0 | 0.02 | 0.32 | 0.16 | 96 | 1020.6 |
| 20260505214609 | 32 | 324 | 6.0 | 13.0 | 0.02 | 0.32 | 0.16 | 96 | 1020.6 |
| 20260505213836 | 32 | 44 | 6.0 | 15.0 | 0.02 | 0.32 | 0.16 | 96 | 1020.6 |
| 20260505213607 | 33 | 337 | 4.0 | 15.0 | 0.02 | 0.32 | 0.16 | 96 | 1020.6 |
| 20260505212836 | 33 | 343 | 2.0 | 7.0 | 0.03 | 0.32 | 0.16 | 96 | 1020.6 |
| 20260505212337 | 33 | 332 | 2.0 | 5.0 | 0.02 | 0.31 | 0.15 | 96 | 1020.6 |
| 20260505211837 | 33 | 8 | 2.0 | 5.0 | 0.02 | 0.31 | 0.15 | 96 | 1020.6 |
| 20260505211337 | 34 | 9 | 2.0 | 5.0 | 0.03 | 0.31 | 0.15 | 96 | 1020.6 |
| 20260505210836 | 35 | 33 | 1.0 | 5.0 | 0.04 | 0.31 | 0.15 | 96 | 1020.6 |
| 20260505210336 | 35 | 43 | 2.0 | 5.0 | 0.04 | 0.31 | 0.15 | 96 | 1020.6 |
| 20260505205835 | 35 | 59 | 1.0 | 5.0 | 0.04 | 0.31 | 0.15 | 96 | 1020.6 |
| 20260505205337 | 35 | 11 | 1.0 | 5.0 | 0.04 | 0.31 | 0.15 | 96 | 1020.6 |
| 20260505204837 | 35 | 65 | 2.0 | 5.0 | 0.03 | 0.30 | 0.14 | 96 | 1020.6 |
| 20260505204336 | 35 | 37 | 2.0 | 5.0 | 0.03 | 0.30 | 0.14 | 96 | 1020.6 |
| 20260505203837 | 35 | 51 | 1.0 | 5.0 | 0.03 | 0.30 | 0.14 | 96 | 1020.6 |
| 20260505203335 | 35 | 79 | 1.0 | 4.0 | 0.03 | 0.30 | 0.14 | 96 | 1020.6 |
| 20260505202834 | 35 | 41 | 2.0 | 4.0 | 0.02 | 0.29 | 0.14 | 96 | 1020.6 |
| 20260505202333 | 34 | 63 | 2.0 | 6.0 | 0.02 | 0.29 | 0.13 | 96 | 1020.6 |
| 20260505202103 | 34 | 64 | 2.0 | 7.0 | 0.02 | 0.29 | 0.13 | 96 | 1020.6 |
| 20260505201332 | 34 | 40 | 2.0 | 7.0 | 0.01 | 0.28 | 0.12 | 96 | 1020.6 |
| 20260505200832 | 34 | 37 | 3.0 | 7.0 | 0.00 | 0.27 | 0.11 | 96 | 1020.6 |
| 20260505200333 | 36 | 34 | 3.0 | 7.0 | 0.00 | 0.27 | 0.11 | 96 | 1020.6 |
| 20260505195834 | 36 | 53 | 2.0 | 5.0 | 0.00 | 0.27 | 0.11 | 96 | 1020.6 |
| 20260505195604 | 36 | 58 | 2.0 | 5.0 | 0.00 | 0.27 | 0.11 | 96 | 1020.6 |
| 20260505194832 | 36 | 77 | 3.0 | 6.0 | 0.00 | 0.27 | 0.11 | 96 | 1020.6 |
| 20260505194339 | 36 | 59 | 2.0 | 5.0 | 0.01 | 0.27 | 0.11 | 96 | 1020.6 |
| 20260505194334 | 36 | 71 | 3.0 | 6.0 | 0.00 | 0.27 | 0.11 | 96 | 1020.6 |
| 20260505193331 | 36 | 77 | 1.0 | 5.0 | 0.01 | 0.27 | 0.11 | 96 | 1020.6 |
| 20260505192835 | 36 | 100 | 1.0 | 3.0 | 0.01 | 0.27 | 0.11 | 96 | 1020.6 |
| 20260505192333 | 36 | 84 | 1.0 | 4.0 | 0.01 | 0.27 | 0.11 | 96 | 1020.6 |
| 20260505191831 | 36 | 96 | 2.0 | 4.0 | 0.01 | 0.27 | 0.11 | 96 | 1020.6 |
| 20260505191332 | 36 | 96 | 2.0 | 4.0 | 0.01 | 0.27 | 0.11 | 96 | 1020.6 |
| 20260505190833 | 36 | 93 | 2.0 | 4.0 | 0.01 | 0.27 | 0.11 | 96 | 1020.6 |
| 20260505190334 | 36 | 79 | 2.0 | 5.0 | 0.01 | 0.27 | 0.11 | 96 | 1020.6 |
| 20260505185834 | 37 | 99 | 2.0 | 5.0 | 0.01 | 0.27 | 0.11 | 96 | 1020.6 |
| 20260505185332 | 36 | 82 | 2.0 | 4.0 | 0.01 | 0.27 | 0.11 | 96 | 1020.6 |
| 20260505184830 | 36 | 84 | 1.0 | 4.0 | 0.02 | 0.27 | 0.11 | 96 | 1020.6 |
| 20260505184604 | 36 | 95 | 2.0 | 5.0 | 0.02 | 0.27 | 0.11 | 96 | 1020.6 |
| 20260505183830 | 35 | 79 | 1.0 | 5.0 | 0.01 | 0.26 | 0.10 | 96 | 1020.6 |
| 20260505183333 | 36 | 95 | 1.0 | 3.0 | 0.01 | 0.26 | 0.10 | 96 | 1020.6 |
| 20260505183327 | 36 | 68 | 1.0 | 3.0 | 0.01 | 0.26 | 0.10 | 96 | 1020.6 |
| 20260505182327 | 36 | 70 | 1.0 | 2.0 | 0.01 | 0.26 | 0.10 | 96 | 1020.6 |
| 20260505181828 | 36 | 91 | 1.0 | 4.0 | 0.01 | 0.26 | 0.10 | 96 | 1020.6 |
| 20260505181325 | 35 | 98 | 1.0 | 4.0 | 0.01 | 0.26 | 0.10 | 96 | 1020.6 |
| 20260505180827 | 35 | 74 | 2.0 | 4.0 | 0.01 | 0.26 | 0.10 | 96 | 1020.6 |
| 20260505180555 | 35 | 79 | 2.0 | 6.0 | 0.01 | 0.26 | 0.10 | 96 | 1020.6 |
| 20260505175824 | 35 | 81 | 2.0 | 6.0 | 0.01 | 0.26 | 0.10 | 96 | 1020.6 |
| 20260505175555 | 35 | 72 | 1.0 | 3.0 | 0.01 | 0.26 | 0.10 | 96 | 1020.6 |
| 20260505174824 | 35 | 37 | 1.0 | 5.0 | 0.00 | 0.25 | 0.09 | 96 | 1020.6 |
| 20260505174323 | 35 | 75 | 1.0 | 5.0 | 0.00 | 0.25 | 0.09 | 96 | 1020.6 |
| 20260505173823 | 35 | 75 | 1.0 | 4.0 | 0.00 | 0.25 | 0.09 | 96 | 1020.6 |
| 20260505173326 | 35 | 40 | 1.0 | 4.0 | 0.00 | 0.25 | 0.09 | 96 | 1020.6 |
| 20260505173054 | 35 | 65 | 1.0 | 4.0 | 0.00 | 0.25 | 0.09 | 96 | 1020.6 |
| 20260505172323 | 35 | 56 | 1.0 | 4.0 | 0.01 | 0.25 | 0.09 | 96 | 1020.6 |
| 20260505172055 | 35 | 12 | 1.0 | 4.0 | 0.01 | 0.25 | 0.09 | 96 | 1020.6 |
| 20260505171554 | 35 | 353 | 1.0 | 4.0 | 0.01 | 0.25 | 0.09 | 96 | 1020.6 |
| 20260505170823 | 35 | 49 | 1.0 | 4.0 | 0.01 | 0.25 | 0.09 | 96 | 1020.6 |
| 20260505170326 | 35 | 28 | 1.0 | 3.0 | 0.01 | 0.25 | 0.09 | 96 | 1020.6 |
| 20260505165826 | 35 | 25 | 1.0 | 3.0 | 0.01 | 0.25 | 0.09 | 96 | 1020.6 |
| 20260505165821 | 35 | 353 | 1.0 | 3.0 | 0.01 | 0.25 | 0.09 | 96 | 1020.6 |
| 20260505164823 | 35 | 15 | 1.0 | 3.0 | 0.01 | 0.25 | 0.09 | 96 | 1020.6 |
| 20260505164322 | 35 | 52 | 0.0 | 3.0 | 0.01 | 0.25 | 0.09 | 96 | 1020.6 |
| 20260505163821 | 35 | 356 | 0.0 | 2.0 | 0.01 | 0.25 | 0.09 | 96 | 1020.6 |
| 20260505163322 | 35 | 13 | 0.0 | 3.0 | 0.01 | 0.25 | 0.09 | 96 | 1020.6 |
| 20260505162827 | 35 | 347 | 1.0 | 4.0 | 0.00 | 0.24 | 0.08 | 96 | 1020.6 |
| 20260505162821 | 35 | 8 | 1.0 | 4.0 | 0.01 | 0.25 | 0.09 | 96 | 1020.6 |
| 20260505162443 | 35 | 39 | 1.0 | 3.0 | 0.00 | 0.24 | 0.08 | 96 | 1020.6 |
| 20260505161323 | 35 | 29 | 1.0 | 3.0 | 0.00 | 0.24 | 0.08 | 96 | 1020.6 |
| 20260505161053 | 35 | 23 | 1.0 | 3.0 | 0.01 | 0.24 | 0.08 | 96 | 1020.6 |
| 20260505160322 | 35 | 18 | 1.0 | 3.0 | 0.01 | 0.24 | 0.08 | 96 | 1020.6 |
| 20260505153321 | 34 | 10 | 0.0 | 2.0 | 0.02 | 0.24 | 0.08 | 95 | 1020.6 |
| 20260505153052 | 34 | 57 | 0.0 | 2.0 | 0.02 | 0.24 | 0.08 | 95 | 1020.6 |
| 20260505152321 | 34 | 15 | 0.0 | 2.0 | 0.02 | 0.24 | 0.08 | 95 | 1020.6 |
| 20260505151819 | 34 | 32 | 0.0 | 3.0 | 0.02 | 0.24 | 0.08 | 95 | 1020.6 |
| 20260505151320 | 34 | 15 | 0.0 | 3.0 | 0.03 | 0.24 | 0.08 | 95 | 1020.6 |
| 20260505151047 | 34 | 347 | 0.0 | 3.0 | 0.02 | 0.23 | 0.07 | 95 | 1020.6 |
| 20260505150315 | 34 | 301 | 0.0 | 3.0 | 0.02 | 0.23 | 0.07 | 95 | 1020.6 |
| 20260505140316 | 32 | 311 | 2.0 | 5.0 | 0.00 | 0.21 | 0.05 | 95 | 1020.6 |
| 20260505130311 | 32 | 27 | 3.0 | 7.0 | 0.00 | 0.21 | 0.05 | 95 | 1020.6 |
| 20260505124811 | 32 | 292 | 4.0 | 8.0 | 0.00 | 0.21 | 0.05 | 94 | 1020.6 |
| 20260505124314 | 32 | 342 | 4.0 | 8.0 | 0.00 | 0.21 | 0.05 | 94 | 1020.6 |
| 20260505123811 | 32 | 347 | 3.0 | 7.0 | 0.00 | 0.21 | 0.05 | 94 | 1020.6 |
| 20260505123313 | 32 | 12 | 3.0 | 7.0 | 0.00 | 0.21 | 0.05 | 94 | 1020.6 |
| 20260505122812 | 32 | 350 | 3.0 | 7.0 | 0.00 | 0.21 | 0.05 | 94 | 1020.6 |
| 20260505122312 | 32 | 334 | 3.0 | 6.0 | 0.00 | 0.21 | 0.05 | 94 | 1020.6 |
| 20260505121814 | 32 | 311 | 3.0 | 6.0 | 0.00 | 0.21 | 0.05 | 94 | 1020.6 |
| 20260505121541 | 32 | 328 | 3.0 | 7.0 | 0.00 | 0.21 | 0.05 | 94 | 1020.6 |
| 20260505120815 | 32 | 310 | 3.0 | 8.0 | 0.01 | 0.21 | 0.05 | 94 | 1020.6 |
| 20260505120310 | 32 | 336 | 3.0 | 8.0 | 0.01 | 0.21 | 0.05 | 94 | 1020.6 |
| 20260505115814 | 32 | 316 | 3.0 | 7.0 | 0.02 | 0.21 | 0.05 | 94 | 1020.6 |
| 20260505115315 | 33 | 355 | 3.0 | 7.0 | 0.02 | 0.21 | 0.05 | 94 | 1020.6 |
| 20260505115039 | 33 | 328 | 2.0 | 7.0 | 0.02 | 0.21 | 0.05 | 94 | 1020.6 |
| 20260505114308 | 33 | 15 | 3.0 | 10.0 | 0.02 | 0.21 | 0.05 | 94 | 1020.6 |
| 20260505113814 | 33 | 15 | 4.0 | 10.0 | 0.02 | 0.21 | 0.05 | 94 | 1020.6 |
| 20260505113311 | 33 | 330 | 4.0 | 11.0 | 0.03 | 0.21 | 0.05 | 94 | 1020.6 |
| 20260505112808 | 33 | 9 | 5.0 | 11.0 | 0.03 | 0.21 | 0.05 | 94 | 1020.6 |
| 20260505112309 | 34 | 297 | 6.0 | 13.0 | 0.03 | 0.21 | 0.05 | 93 | 1020.6 |
| 20260505111817 | 34 | 349 | 6.0 | 15.0 | 0.03 | 0.21 | 0.05 | 93 | 1020.6 |
| 20260505111813 | 34 | 21 | 7.0 | 15.0 | 0.03 | 0.21 | 0.05 | 93 | 1020.6 |
| 20260505110810 | 35 | 295 | 5.0 | 12.0 | 0.02 | 0.20 | 0.04 | 94 | 1020.6 |
| 20260505110309 | 35 | 30 | 6.0 | 13.0 | 0.02 | 0.20 | 0.04 | 94 | 1020.6 |
| 20260505102040 | 37 | 277 | 7.0 | 15.0 | 0.02 | 0.18 | 0.02 | 94 | 1020.6 |
| 20260505101313 | 37 | 35 | 7.0 | 15.0 | 0.02 | 0.18 | 0.02 | 94 | 1020.6 |
| 20260505100811 | 37 | 296 | 7.0 | 15.0 | 0.02 | 0.18 | 0.02 | 94 | 1020.6 |
| 20260505100540 | 37 | 352 | 7.0 | 15.0 | 0.02 | 0.18 | 0.02 | 94 | 1020.6 |
| 20260505095814 | 38 | 15 | 7.0 | 14.0 | 0.01 | 0.17 | 0.01 | 94 | 1020.6 |
| 20260505095312 | 38 | 347 | 8.0 | 16.0 | 0.01 | 0.17 | 0.01 | 94 | 1020.6 |
| 20260505094810 | 38 | 51 | 9.0 | 16.0 | 0.01 | 0.17 | 0.01 | 94 | 1020.6 |
| 20260505094540 | 39 | 356 | 9.0 | 16.0 | 0.01 | 0.17 | 0.01 | 94 | 1020.6 |
| 20260505093811 | 39 | 326 | 9.0 | 16.0 | 0.01 | 0.17 | 0.01 | 93 | 1020.6 |
| 20260505093314 | 39 | 238 | 8.0 | 15.0 | 0.01 | 0.17 | 0.01 | 93 | 1020.6 |
| 20260505093309 | 39 | 323 | 8.0 | 16.0 | 0.01 | 0.17 | 0.01 | 93 | 1020.6 |
| 20260505092311 | 39 | 313 | 8.0 | 15.0 | 0.01 | 0.17 | 0.01 | 93 | 1020.6 |
| 20260505091807 | 39 | 340 | 8.0 | 14.0 | 0.00 | 0.16 | 0.00 | 93 | 1020.6 |
| 20260505091307 | 39 | 356 | 8.0 | 15.0 | 0.00 | 0.16 | 0.00 | 93 | 1020.6 |
| 20260505091039 | 39 | 321 | 8.0 | 15.0 | 0.00 | 0.16 | 0.00 | 93 | 1020.6 |
| 20260505090307 | 39 | 308 | 7.0 | 13.0 | 0.00 | 0.16 | 0.00 | 93 | 1020.6 |
| 20260505085808 | 39 | 4 | 7.0 | 13.0 | 0.00 | 0.16 | 0.00 | 92 | 1020.6 |
| 20260505085306 | 39 | 343 | 8.0 | 15.0 | 0.00 | 0.16 | 0.00 | 92 | 1020.6 |
| 20260505084810 | 39 | 7 | 8.0 | 15.0 | 0.00 | 0.16 | 0.00 | 92 | 1020.6 |
| 20260505084305 | 40 | 34 | 7.0 | 15.0 | 0.00 | 0.16 | 0.00 | 92 | 1020.6 |
| 20260505083805 | 40 | 1 | 7.0 | 15.0 | 0.00 | 0.16 | 0.00 | 92 | 1020.6 |
| 20260505083306 | 40 | 311 | 7.0 | 12.0 | 0.00 | 0.16 | 0.00 | 91 | 1020.6 |
| 20260505082807 | 40 | 0 | 7.0 | 12.0 | 0.00 | 0.16 | 0.00 | 91 | 1020.6 |
| 20260505082305 | 40 | 336 | 7.0 | 13.0 | 0.00 | 0.16 | 0.00 | 91 | 1020.6 |
| 20260505081805 | 40 | 324 | 8.0 | 15.0 | 0.00 | 0.16 | 0.00 | 91 | 1020.6 |
| 20260505081310 | 42 | 350 | 7.0 | 12.0 | 0.00 | 0.16 | 0.00 | 90 | 1020.6 |
| 20260505081306 | 41 | 337 | 7.0 | 15.0 | 0.00 | 0.16 | 0.00 | 90 | 1020.6 |
| 20260505080305 | 43 | 29 | 6.0 | 12.0 | 0.00 | 0.16 | 0.00 | 89 | 1020.6 |
| 20260505075806 | 44 | 23 | 3.0 | 12.0 | 0.00 | 0.16 | 0.00 | 89 | 1020.6 |
| 20260505075306 | 45 | 310 | 1.0 | 5.0 | 0.00 | 0.16 | 0.00 | 89 | 1020.6 |
| 20260505074806 | 45 | 344 | 0.0 | 3.0 | 0.00 | 0.16 | 0.00 | 89 | 1020.6 |
| 20260505074304 | 44 | 111 | 0.0 | 0.0 | 0.00 | 0.16 | 0.00 | 89 | 1020.6 |
| 20260505073806 | 44 | 111 | 0.0 | 0.0 | 0.00 | 0.16 | 0.00 | 88 | 1020.6 |
| 20260505073306 | 44 | 111 | 0.0 | 0.0 | 0.00 | 0.16 | 0.00 | 88 | 1020.6 |
| 20260505072806 | 44 | 111 | 0.0 | 0.0 | 0.00 | 0.16 | 0.00 | 88 | 1020.6 |
| 20260505072305 | 44 | 111 | 0.0 | 0.0 | 0.00 | 0.16 | 0.00 | 88 | 1020.6 |
| 20260505071804 | 44 | 111 | 0.0 | 0.0 | 0.00 | 0.16 | 0.00 | 88 | 1020.6 |
| 20260505071537 | 44 | 111 | 0.0 | 0.0 | 0.00 | 0.16 | 0.00 | 87 | 1020.6 |
| 20260505070803 | 44 | 111 | 0.0 | 0.0 | 0.00 | 0.16 | 0.00 | 88 | 1020.6 |
| 20260505070533 | 44 | 111 | 0.0 | 0.0 | 0.00 | 0.16 | 0.00 | 88 | 1020.6 |
| 20260505065804 | 44 | 111 | 0.0 | 0.0 | 0.00 | 0.16 | 0.00 | 88 | 1020.6 |
| 20260505065303 | 44 | 111 | 0.0 | 0.0 | 0.00 | 0.16 | 0.00 | 88 | 1020.6 |
| 20260505064758 | 44 | 111 | 0.0 | 0.0 | 0.00 | 0.16 | 0.00 | 88 | 1020.6 |
| 20260505064300 | 45 | 111 | 0.0 | 0.0 | 0.00 | 0.16 | 0.00 | 88 | 1020.6 |
| 20260505064033 | 45 | 111 | 0.0 | 0.0 | 0.00 | 0.16 | 0.00 | 88 | 1020.6 |
| 20260505063259 | 45 | 111 | 0.0 | 0.0 | 0.00 | 0.16 | 0.00 | 88 | 1020.6 |
| 20260505062757 | 45 | 111 | 0.0 | 0.0 | 0.00 | 0.16 | 0.00 | 87 | 1020.6 |
| 20260505062257 | 45 | 111 | 0.0 | 0.0 | 0.00 | 0.16 | 0.00 | 87 | 1020.6 |
| 20260505062029 | 45 | 111 | 0.0 | 0.0 | 0.00 | 0.16 | 0.00 | 87 | 1020.6 |
| 20260505061255 | 45 | 111 | 0.0 | 0.0 | 0.00 | 0.16 | 0.00 | 87 | 1020.6 |
| 20260505060754 | 45 | 111 | 0.0 | 0.0 | 0.00 | 0.16 | 0.00 | 87 | 1020.6 |
| 20260505060527 | 45 | 111 | 0.0 | 0.0 | 0.00 | 0.16 | 0.00 | 87 | 1020.6 |
| 20260505055755 | 45 | 111 | 0.0 | 0.0 | 0.00 | 0.16 | 0.16 | 87 | 1020.6 |
| 20260505055255 | 44 | 111 | 0.0 | 0.0 | 0.00 | 0.16 | 0.16 | 87 | 1020.6 |
| 20260505055027 | 44 | 111 | 0.0 | 0.0 | 0.00 | 0.16 | 0.16 | 87 | 1020.6 |
| 20260505054255 | 44 | 111 | 0.0 | 0.0 | 0.00 | 0.16 | 0.16 | 87 | 1020.6 |
| 20260505053754 | 44 | 111 | 0.0 | 0.0 | 0.00 | 0.16 | 0.16 | 87 | 1020.6 |
| 20260505053253 | 44 | 275 | 0.0 | 0.0 | 0.00 | 0.16 | 0.16 | 88 | 1020.6 |
| 20260505052754 | 44 | 275 | 0.0 | 0.0 | 0.00 | 0.16 | 0.16 | 88 | 1020.6 |
| 20260505052524 | 44 | 129 | 0.0 | 0.0 | 0.00 | 0.16 | 0.16 | 87 | 1020.6 |
| 20260505051752 | 44 | 129 | 0.0 | 1.0 | 0.00 | 0.16 | 0.16 | 87 | 1020.6 |
| 20260505051253 | 44 | 99 | 0.0 | 1.0 | 0.00 | 0.16 | 0.16 | 87 | 1020.6 |
| 20260505050755 | 44 | 105 | 0.0 | 0.0 | 0.00 | 0.16 | 0.16 | 87 | 1020.6 |
| 20260505050524 | 44 | 110 | 0.0 | 0.0 | 0.00 | 0.16 | 0.16 | 87 | 1020.6 |
| 20260505041749 | 45 | 263 | 0.0 | 1.0 | 0.05 | 0.16 | 0.16 | 86 | 1020.6 |
| 20260505041248 | 45 | 263 | 0.0 | 1.0 | 0.06 | 0.16 | 0.16 | 86 | 1020.6 |
| 20260505041020 | 45 | 270 | 0.0 | 0.0 | 0.07 | 0.16 | 0.16 | 87 | 1020.6 |
| 20260505040248 | 45 | 271 | 0.0 | 0.0 | 0.09 | 0.16 | 0.16 | 88 | 1020.6 |
| 20260505035749 | 45 | 255 | 0.0 | 0.0 | 0.10 | 0.16 | 0.16 | 88 | 1020.6 |
| 20260505035248 | 45 | 254 | 0.0 | 0.0 | 0.12 | 0.16 | 0.16 | 87 | 1020.6 |
| 20260505034748 | 45 | 264 | 0.0 | 0.0 | 0.13 | 0.16 | 0.16 | 87 | 1020.6 |
| 20260505034248 | 45 | 264 | 0.0 | 1.0 | 0.15 | 0.16 | 0.16 | 86 | 1020.6 |